Вернуться в каталог

ARABSAT 1B R/B

PAM-D

АктивенСвязьGTO
NORAD 15836·ROCKET BODY·🇺🇸 United States

Запущен Jun 17, 1985 с Cape Canaveral Space Force Station

Loading…

TLE

УстаревающийSource: Space-Track

Эпоха: Sep 14, 2026, 12:59 UTC

1 15836U 85048G   26257.54151936 -.00000236  00000-0  20661-3 0  9994
2 15836  27.1203 342.0845 7102420 101.2749 339.2803  2.42743031112420

Отслеживайте ARABSAT 1B R/B в реальном времени с AllMySat

Download on the App Store